Location: Lombard
(41.8800°N, 88.0080°W)
Time: 23:55:39
(UTC-05:00)

Transit 2A - Pass Details

Date: 11 February 2023
Orbit: 591 x 964 km, 66.7° (Epoch: 20 March)

Event Time Altitude Azimuth Distance (km) Brightness Sun altitude
Rises 01:12:39 0° 318° (NW) 3,574 - -58.7°
Reaches altitude 10° 01:15:31 10° 307° (NW) 2,662 - -58.4°
Maximum altitude 01:20:36 27° 253° (WSW) 1,768 - -57.9°
Drops below altitude 10° 01:25:45 10° 198° (SSW) 2,689 - -57.3°
Sets 01:28:41 0° 187° (S) 3,617 - -57.0°
